H1 CPF 2 NER 2024 4 30 9 121 01 glonass131 H2 1301901 9131 39155 2024 4 30 0 0 0 2024 5 3 23 45 0 900 1 1 0 0 0 1 H9 10 0 60430 0.00000 0 9734486.172 -4691551.171 23155747.902 10 0 60430 900.00000 0 11182540.420 -2262254.233 22858931.218 10 0 60430 1800.00000 0 12770715.292 1534.936 22120268.933 10 0 60430 2700.00000 0 14449934.897 2050548.099 20953734.564 10 0 60430 3600.00000 0 16163869.478 3845617.614 19381568.242 10 0 60430 4500.00000 0 17851197.793 5359073.257 17433877.986 10 0 60430 5400.00000 0 19448103.279 6575659.861 15148089.260 10 0 60430 6300.00000 0 20890901.974 7492936.538 12568250.580 10 0 60430 7200.00000 0 22118693.523 8121139.274 9744205.937 10 0 60430 8100.00000 0 23075924.433 8482510.878 6730647.726 10 0 60430 9000.00000 0 23714755.093 8610124.659 3586066.765 10 0 60430 9900.00000 0 23997129.163 8546249.911 371618.844 10 0 60430 10800.00000 0 23896455.495 8340327.309 -2850070.356 10 0 60430 11700.00000 0 23398828.515 8046639.719 -6016138.051 10 0 60430 12600.00000 0 22503732.222 7721777.815 -9064729.395 10 0 60430 13500.00000 0 21224194.942 7422009.527 -11936228.440 10 0 60430 14400.00000 0 19586385.700 7200667.238 -14574448.612 10 0 60430 15300.00000 0 17628667.360 7105666.344 -16927756.815 10 0 60430 16200.00000 0 15400145.540 7177263.481 -18950106.697 10 0 60430 17100.00000 0 12958774.336 7446152.354 -20601958.676 10 0 60430 18000.00000 0 10369099.345 7931980.361 -21851066.970 10 0 60430 18900.00000 0 7699734.180 8642350.695 -22673117.078 10 0 60430 19800.00000 0 5020677.985 9572353.251 -23052200.748 10 0 60430 20700.00000 0 2400588.079 10704644.435 -22981119.230 10 0 60430 21600.00000 0 -95876.776 12010072.008 -22461509.632 10 0 60430 22500.00000 0 -2410530.648 13448817.483 -21503793.056 10 0 60430 23400.00000 0 -4493848.844 14972006.274 -20126947.166 10 0 60430 24300.00000 0 -6306779.986 16523715.986 -18358109.401 10 0 60430 25200.00000 0 -7822107.952 18043296.468 -16232020.593 10 0 60430 26100.00000 0 -9025309.478 19467902.427 -13790321.784 10 0 60430 27000.00000 0 -9914874.965 20735130.973 -11080719.884 10 0 60430 27900.00000 0 -10502082.974 21785652.654 -8156040.052 10 0 60430 28800.00000 0 -10810241.780 22565725.502 -5073184.735 10 0 60430 29700.00000 0 -10873433.691 23029487.285 -1892020.627 10 0 60430 30600.00000 0 -10734818.194 23140931.052 1325784.204 10 0 60430 31500.00000 0 -10444567.869 22875482.917 4517950.262 10 0 60430 32400.00000 0 -10057525.636 22221117.953 7622780.946 10 0 60430 33300.00000 0 -9630682.645 21178969.553 10580339.019 10 0 60430 34200.00000 0 -9220582.761 19763408.548 13333583.774 10 0 60430 35100.00000 0 -8880761.812 18001590.115 15829448.718 10 0 60430 36000.00000 0 -8659327.658 15932487.997 18019841.076 10 0 60430 36900.00000 0 -8596780.862 13605456.113 19862546.037 10 0 60430 37800.00000 0 -8724165.533 11078376.343 21322020.557 10 0 60430 38700.00000 0 -9061626.342 8415467.587 22370063.501 10 0 60430 39600.00000 0 -9617431.206 5684844.505 22986350.816 10 0 60430 40500.00000 0 -10387500.431 2955924.190 23158826.578 10 0 60430 41400.00000 0 -11355462.822 296785.083 22883942.822 10 0 60430 42300.00000 0 -12493238.083 -2228415.456 22166743.210 10 0 60430 43200.00000 0 -13762123.690 -4561860.488 21020787.887 10 0 60430 44100.00000 0 -15114343.808 -6654231.414 19467919.216 10 0 60430 45000.00000 0 -16494998.754 -8466515.959 17537870.606 10 0 60430 45900.00000 0 -17844336.538 -9971391.336 15267723.307 10 0 60430 46800.00000 0 -19100254.007 -11154124.401 12701218.825 10 0 60430 47700.00000 0 -20200924.543 -12012949.913 9887937.574 10 0 60430 48600.00000 0 -21087442.823 -12558909.392 6882357.298 10 0 60430 49500.00000 0 -21706375.156 -12815155.434 3742807.724 10 0 60430 50400.00000 0 -22012106.621 -12815749.042 530340.749 10 0 60430 51300.00000 0 -21968883.718 -12603999.350 -2692462.136 10 0 60430 52200.00000 0 -21552463.302 -12230415.265 -5862721.334 10 0 60430 53100.00000 0 -20751294.727 -11750355.883 -8918504.137 10 0 60430 54000.00000 0 -19567181.846 -11221480.245 -11800056.968 10 0 60430 54900.00000 0 -18015393.784 -10701106.370 -14450998.406 10 0 60430 55800.00000 0 -16124217.337 -10243593.983 -16819447.088 10 0 60430 56700.00000 0 -13933968.219 -9897864.686 -18859059.926 10 0 60430 57600.00000 0 -11495502.076 -9705167.484 -20529958.146 10 0 60430 58500.00000 0 -8868288.050 -9697186.888 -21799521.218 10 0 60430 59400.00000 0 -6118126.741 -9894575.666 -22643032.011 10 0 60430 60300.00000 0 -3314609.631 -10305975.607 -23044159.991 10 0 60430 61200.00000 0 -528428.032 -10927568.106 -22995273.099 10 0 60430 62100.00000 0 2171354.388 -11743173.199 -22497572.907 10 0 60430 63000.00000 0 4719950.418 -12724891.709 -21561051.543 10 0 60430 63900.00000 0 7059308.364 -13834261.730 -20204272.835 10 0 60430 64800.00000 0 9140279.082 -15023878.635 -18453983.707 10 0 60430 65700.00000 0 10924401.806 -16239408.168 -16344565.410 10 0 60430 66600.00000 0 12385236.347 -17421905.782 -13917337.263 10 0 60430 67500.00000 0 13509188.983 -18510342.884 -11219728.384 10 0 60430 68400.00000 0 14295801.054 -19444232.480 -8304335.224 10 0 60430 69300.00000 0 14757492.022 -20166243.226 -5227884.735 10 0 60430 70200.00000 0 14918771.703 -20624692.100 -2050124.394 10 0 60430 71100.00000 0 14814958.290 -20775811.735 1167338.737 10 0 60430 72000.00000 0 14490459.052 -20585698.519 4362227.129 10 0 60430 72900.00000 0 13996688.158 -20031861.417 7472787.426 10 0 60430 73800.00000 0 13389710.455 -19104308.455 10438968.304 10 0 60430 74700.00000 0 12727710.566 -17806127.097 13203560.084 10 0 60430 75600.00000 0 12068393.053 -16153535.645 15713275.842 10 0 60430 76500.00000 0 11466421.528 -14175404.305 17919755.223 10 0 60430 77400.00000 0 10971002.345 -11912265.927 19780473.805 10 0 60430 78300.00000 0 10623712.173 -9414856.816 21259542.735 10 0 60430 79200.00000 0 10456658.516 -6742246.554 22328385.281 10 0 60430 80100.00000 0 10491048.710 -3959632.150 22966278.932 10 0 60430 81000.00000 0 10736226.381 -1135884.984 23160753.759 10 0 60430 81900.00000 0 11189215.668 1659051.043 22907839.828 10 0 60430 82800.00000 0 11834793.165 4356805.637 22212158.643 10 0 60430 83700.00000 0 12646086.304 6893165.830 21086855.821 10 0 60430 84600.00000 0 13585675.658 9210492.635 19553374.600 10 0 60430 85500.00000 0 14607157.865 11259871.926 17641072.232 10 0 60431 0.00000 0 15657106.678 13002910.782 15386684.274 10 0 60431 900.00000 0 16677353.196 14413105.195 12833642.962 10 0 60431 1800.00000 0 17607490.324 15476718.856 10031263.308 10 0 60431 2700.00000 0 18387499.353 16193137.751 7033806.245 10 0 60431 3600.00000 0 18960386.956 16574681.396 3899438.099 10 0 60431 4500.00000 0 19274721.135 16645877.644 689104.430 10 0 60431 5400.00000 0 19286957.120 16442229.769 -2534659.981 10 0 60431 6300.00000 0 18963452.236 16008526.693 -5708961.251 10 0 60431 7200.00000 0 18282081.244 15396767.420 -8771791.301 10 0 60431 8100.00000 0 17233380.305 14663787.945 -11663261.274 10 0 60431 9000.00000 0 15821167.779 13868692.447 -14326797.074 10 0 60431 9900.00000 0 14062612.634 13070199.587 -16710271.016 10 0 60431 10800.00000 0 11987745.305 12324018.826 -18767045.003 10 0 60431 11700.00000 0 9638430.180 11680370.520 -20456902.566 10 0 60431 12600.00000 0 7066842.471 11181757.339 -21746849.741 10 0 60431 13500.00000 0 4333513.812 10861083.394 -22611767.888 10 0 60431 14400.00000 0 1505029.572 10740202.031 -23034905.134 10 0 60431 15300.00000 0 -1348524.238 10828954.278 -23008196.834 10 0 60431 16200.00000 0 -4156256.118 11124738.301 -22532409.482 10 0 60431 17100.00000 0 -6849192.369 11612626.956 -21617106.384 10 0 60431 18000.00000 0 -9362913.904 12266026.732 -20280437.316 10 0 60431 18900.00000 0 -11639996.393 13047848.011 -18548758.103 10 0 60431 19800.00000 0 -13632152.586 13912134.857 -16456089.462 10 0 60431 20700.00000 0 -15301988.931 14806083.118 -14043427.701 10 0 60431 21600.00000 0 -16624305.517 15672359.589 -11357922.577 10 0 60431 22500.00000 0 -17586888.128 16451622.755 -8451940.030 10 0 60431 23400.00000 0 -18190762.806 17085137.772 -5382029.535 10 0 60431 24300.00000 0 -18449906.060 17517375.124 -2207817.202 10 0 60431 25200.00000 0 -18390426.536 17698483.835 1009153.183 10 0 60431 26100.00000 0 -18049255.733 17586536.080 4206608.471 10 0 60431 27000.00000 0 -17472405.368 17149450.228 7322741.073 10 0 60431 27900.00000 0 -16712866.304 16366513.232 10297388.217 10 0 60431 28800.00000 0 -15828238.080 15229440.187 13073173.971 10 0 60431 29700.00000 0 -14878188.426 13742928.155 15596593.741 10 0 60431 30600.00000 0 -13921848.312 11924682.047 17819022.339 10 0 60431 31500.00000 0 -13015250.118 9804911.796 19697628.408 10 0 60431 32400.00000 0 -12208914.121 7425321.196 21196179.810 10 0 60431 33300.00000 0 -11545682.167 4837629.130 22285726.535 10 0 60431 34200.00000 0 -11058887.141 2101682.366 22945149.663 10 0 60431 35100.00000 0 -10770933.264 -716764.571 23161566.971 10 0 60431 36000.00000 0 -10692345.775 -3548513.773 22930587.893 10 0 60431 36900.00000 0 -10821329.776 -6323533.810 22256412.685 10 0 60431 37800.00000 0 -11143857.649 -8973610.236 21151772.891 10 0 60431 38700.00000 0 -11634283.133 -11434929.671 19637712.580 10 0 60431 39600.00000 0 -12256458.747 -13650492.302 17743212.317 10 0 60431 40500.00000 0 -12965312.416 -15572253.787 15504660.487 10 0 60431 41400.00000 0 -13708819.868 -17162907.684 12965179.360 10 0 60431 42300.00000 0 -14430292.246 -18397233.403 10173816.220 10 0 60431 43200.00000 0 -15070884.388 -19262951.917 7184612.833 10 0 60431 44100.00000 0 -15572218.800 -19761051.482 4055569.433 10 0 60431 45000.00000 0 -15879014.342 -19905567.495 847522.259 10 0 60431 45900.00000 0 -15941607.176 -19722823.721 -2377043.843 10 0 60431 46800.00000 0 -15718255.087 -19250165.257 -5555224.144 10 0 60431 47700.00000 0 -15177124.592 -18534235.711 -8624938.764 10 0 60431 48600.00000 0 -14297873.263 -17628871.335 -11526167.242 10 0 60431 49500.00000 0 -13072756.715 -16592701.839 -14202146.472 10 0 60431 50400.00000 0 -11507210.117 -15486560.986 -16600506.020 10 0 60431 51300.00000 0 -9619876.865 -14370818.614 -18674316.114 10 0 60431 52200.00000 0 -7442081.195 -13302749.441 -20383025.586 10 0 60431 53100.00000 0 -5016765.801 -12334052.382 -21693269.549 10 0 60431 54000.00000 0 -2396938.912 -11508627.419 -22579529.817 10 0 60431 54900.00000 0 356303.476 -10860705.514 -23024634.517 10 0 60431 55800.00000 0 3176096.190 -10413411.370 -23020087.149 10 0 60431 56700.00000 0 5992365.826 -10177819.591 -22566219.273 10 0 60431 57600.00000 0 8734525.588 -10152543.132 -21672164.984 10 0 60431 58500.00000 0 11334190.228 -10323869.623 -20355659.148 10 0 60431 59400.00000 0 13727797.173 -10666437.470 -18642665.190 10 0 60431 60300.00000 0 15859024.491 -11144420.466 -16566841.598 10 0 60431 61200.00000 0 17680905.662 -11713168.096 -14168859.573 10 0 60431 62100.00000 0 19157554.606 -12321229.648 -11495587.015 10 0 60431 63000.00000 0 20265431.421 -12912674.435 -8599156.496 10 0 60431 63900.00000 0 20994098.991 -13429608.536 -5535936.804 10 0 60431 64800.00000 0 21346442.324 -13814780.883 -2365429.217 10 0 60431 65700.00000 0 21338344.982 -14014168.569 850889.407 10 0 60431 66600.00000 0 20997839.555 -13979432.863 4050753.990 10 0 60431 67500.00000 0 20363770.630 -13670143.568 7172306.340 10 0 60431 68400.00000 0 19484028.527 -13055679.606 10155275.664 10 0 60431 69300.00000 0 18413429.077 -12116727.600 12942122.918 10 0 60431 70200.00000 0 17211328.677 -10846317.094 15479128.598 10 0 60431 71100.00000 0 15939073.903 -9250350.234 17717405.029 10 0 60431 72000.00000 0 14657391.065 -7347604.289 19613815.822 10 0 60431 72900.00000 0 13423822.944 -5169206.730 21131787.002 10 0 60431 73800.00000 0 12290317.515 -2757603.630 22241996.280 10 0 60431 74700.00000 0 11301067.140 -165062.399 22922928.886 10 0 60431 75600.00000 0 10490686.407 2548231.637 23161290.432 10 0 60431 76500.00000 0 9882803.234 5316409.058 22952269.446 10 0 60431 77400.00000 0 9489121.368 8070391.422 22299644.270 10 0 60431 78300.00000 0 9308993.589 10740508.460 21215731.349 10 0 60431 79200.00000 0 9329524.455 13259152.013 19721174.243 10 0 60431 80100.00000 0 9526200.030 15563359.038 17844575.198 10 0 60431 81000.00000 0 9864020.472 17597218.051 15621973.764 10 0 60431 81900.00000 0 10299090.412 19313999.556 13096179.726 10 0 60431 82800.00000 0 10780602.651 20677921.322 10315970.511 10 0 60431 83700.00000 0 11253133.576 21665473.583 7335166.221 10 0 60431 84600.00000 0 11659154.660 22266246.812 4211598.345 10 0 60431 85500.00000 0 11941654.245 22483225.042 1005991.041 10 0 60432 0.00000 0 12046757.936 22332530.103 -2219223.314 10 0 60432 900.00000 0 11926234.907 21842625.294 -5401132.510 10 0 60432 1800.00000 0 11539781.224 21053010.820 -8477587.269 10 0 60432 2700.00000 0 10856980.387 20012465.016 -11388438.019 10 0 60432 3600.00000 0 9858854.287 18776905.861 -14076734.917 10 0 60432 4500.00000 0 8538935.513 17406964.114 -16489866.772 10 0 60432 5400.00000 0 6903812.484 15965372.285 -18580613.867 10 0 60432 6300.00000 0 4973121.870 14514281.940 -20308091.790 10 0 60432 7200.00000 0 2778986.937 13112624.965 -21638565.960 10 0 60432 8100.00000 0 364924.627 11813632.452 -22546119.638 10 0 60432 9000.00000 0 -2215732.654 10662617.552 -23013161.729 10 0 60432 9900.00000 0 -4901833.574 9695116.935 -23030764.400 10 0 60432 10800.00000 0 -7626737.862 8935469.331 -22598824.521 10 0 60432 11700.00000 0 -10320880.841 8395890.322 -21726046.884 10 0 60432 12600.00000 0 -12914463.897 8076080.750 -20429751.006 10 0 60432 13500.00000 0 -15340157.489 7963382.856 -18735507.113 10 0 60432 14400.00000 0 -17535703.391 8033474.661 -16676610.329 10 0 60432 15300.00000 0 -19446307.743 8251570.151 -14293405.331 10 0 60432 16200.00000 0 -21026726.068 8574071.493 -11632476.546 10 0 60432 17100.00000 0 -22242955.013 8950600.710 -8745721.383 10 0 60432 18000.00000 0 -23073462.595 9326322.726 -5689326.054 10 0 60432 18900.00000 0 -23509908.589 9644460.097 -2522665.018 10 0 60432 19800.00000 0 -23557328.155 9848892.429 692853.862 10 0 60432 20700.00000 0 -23233774.343 9886730.717 3894975.753 10 0 60432 21600.00000 0 -22569437.376 9710758.725 7021794.149 10 0 60432 22500.00000 0 -21605280.043 9281639.723 10012932.648 10 0 60432 23400.00000 0 -20391247.957 8569797.247 12810691.611 10 0 60432 24300.00000 0 -18984130.349 7556892.413 15361139.217 10 0 60432 25200.00000 0 -17445160.684 6236837.188 17615127.904 10 0 60432 26100.00000 0 -15837456.330 4616302.027 19529218.779 10 0 60432 27000.00000 0 -14223402.435 2714696.872 21066498.420 10 0 60432 27900.00000 0 -12662086.929 563625.598 22197274.437 10 0 60432 28800.00000 0 -11206891.142 -1794164.856 22899638.098 10 0 60432 29700.00000 0 -9903334.127 -4306299.361 23159884.428 10 0 60432 30600.00000 0 -8787258.504 -6912693.568 22972782.263 10 0 60432 31500.00000 0 -7883432.127 -9547800.756 22341688.878 10 0 60432 32400.00000 0 -7204623.280 -12143096.907 21278506.078 10 0 60432 33300.00000 0 -6751188.274 -14629704.278 19803476.968 10 0 60432 34200.00000 0 -6511189.746 -16941047.376 17944825.119 10 0 60432 35100.00000 0 -6461042.429 -19015433.034 15738240.498 10 0 60432 36000.00000 0 -6566661.411 -20798448.354 13226219.250 10 0 60432 36900.00000 0 -6785066.885 -22245076.631 10457267.422 10 0 60432 37800.00000 0 -7066379.839 -23321441.967 7484981.594 10 0 60432 38700.00000 0 -7356126.005 -24006107.866 4367022.342 10 0 60432 39600.00000 0 -7597751.401 -24290872.997 1163999.302 10 0 60432 40500.00000 0 -7735242.827 -24181028.109 -2061710.882 10 0 60432 41400.00000 0 -7715741.038 -23695060.802 -5247190.279 10 0 60432 42300.00000 0 -7492033.685 -22863818.474 -8330223.916 10 0 60432 43200.00000 0 -7024819.397 -21729163.313 -11250536.415 10 0 60432 44100.00000 0 -6284643.657 -20342175.524 -13950994.591 10 0 60432 45000.00000 0 -5253420.908 -18760980.943 -16378749.919 10 0 60432 45900.00000 0 -3925475.131 -17048295.892 -18486296.051 10 0 60432 46800.00000 0 -2308052.007 -15268794.622 -20232418.437 10 0 60432 47700.00000 0 -421278.936 -13486412.544 -21583015.561 10 0 60432 48600.00000 0 1702426.749 -11761701.091 -22511774.468 10 0 60432 49500.00000 0 4019476.903 -10149347.524 -23000686.684 10 0 60432 50400.00000 0 6476711.648 -8695965.418 -23040394.376 10 0 60432 51300.00000 0 9013410.372 -7438249.344 -22630360.554 10 0 60432 52200.00000 0 11563629.050 -6401570.912 -21778861.061 10 0 60432 53100.00000 0 14058764.565 -5599073.932 -20502799.970 10 0 60432 54000.00000 0 16430237.493 -5031304.486 -18827353.784 10 0 60432 54900.00000 0 18612180.301 -4686388.602 -16785453.302 10 0 60432 55800.00000 0 20544018.265 -4540746.666 -14417115.267 10 0 60432 56700.00000 0 22172835.708 -4560310.994 -11768638.739 10 0 60432 57600.00000 0 23455429.804 -4702191.832 -8891683.603 10 0 60432 58500.00000 0 24359968.000 -4916718.586 -5842250.677 10 0 60432 59400.00000 0 24867182.223 -5149767.791 -2679584.396 10 0 60432 60300.00000 0 24971052.837 -5345278.068 534979.877 10 0 60432 61200.00000 0 24678956.737 -5447845.189 3739201.233 10 0 60432 62100.00000 0 24011276.343 -5405287.928 6871128.569 10 0 60432 63000.00000 0 23000488.331 -5171077.310 9870283.518 10 0 60432 63900.00000 0 21689772.136 -4706528.270 12678809.291 10 0 60432 64800.00000 0 20131197.445 -3982663.079 15242564.910 10 0 60432 65700.00000 0 18383566.582 -2981669.758 17512145.758 10 0 60432 66600.00000 0 16510001.113 -1697895.542 19443812.904 10 0 60432 67500.00000 0 14575371.796 -138334.372 21000315.545 10 0 60432 68400.00000 0 12643676.786 1677412.099 22151592.853 10 0 60432 69300.00000 0 10775474.774 3717699.421 22875343.385 10 0 60432 70200.00000 0 9025477.264 5939909.554 23157452.389 10 0 60432 71100.00000 0 7440397.768 8291982.607 22992269.372 10 0 60432 72000.00000 0 6057145.513 10714350.676 22382730.440 10 0 60432 72900.00000 0 4901437.668 13142197.000 21340322.194 10 0 60432 73800.00000 0 3986887.424 15507950.115 19884886.276 10 0 60432 74700.00000 0 3314606.483 17743912.492 18044266.160 10 0 60432 75600.00000 0 2873339.628 19784916.800 15853800.420 10 0 60432 76500.00000 0 2640127.479 21570900.784 13355669.428 10 0 60432 77400.00000 0 2581471.603 23049293.868 10598105.426 10 0 60432 78300.00000 0 2654954.947 24177115.266 7634478.793 10 0 60432 79200.00000 0 2811250.949 24922694.287 4522276.316 10 0 60432 80100.00000 0 2996437.527 25266938.442 1321990.078 10 0 60432 81000.00000 0 3154518.271 25204093.373 -1904061.830 10 0 60432 81900.00000 0 3230043.328 24741959.831 -5092959.441 10 0 60432 82800.00000 0 3170717.221 23901555.925 -8182424.810 10 0 60432 83700.00000 0 2929880.484 22716236.863 -11112059.584 10 0 60432 84600.00000 0 2468756.787 21230307.986 -13824549.824 10 0 60432 85500.00000 0 1758366.880 19497189.210 -16266811.965 10 0 60433 0.00000 0 781024.956 17577208.971 -18391054.852 10 0 60433 900.00000 0 -468649.513 15535120.850 -20155735.862 10 0 60433 1800.00000 0 -1983248.368 13437451.915 -21526387.732 10 0 60433 2700.00000 0 -3742643.601 11349793.040 -22476302.400 10 0 60433 3600.00000 0 -5714605.191 9334149.641 -22987054.822 10 0 60433 4500.00000 0 -7855942.396 7446464.767 -23048857.665 10 0 60433 5400.00000 0 -10114119.793 5734419.622 -22660740.234 10 0 60433 6300.00000 0 -12429279.043 4235603.854 -21830549.204 10 0 60433 7200.00000 0 -14736580.086 2976131.501 -20574772.587 10 0 60433 8100.00000 0 -16968762.221 1969758.784 -18918192.167 10 0 60433 9000.00000 0 -19058816.573 1217538.064 -16893373.072 10 0 60433 9900.00000 0 -20942657.303 708019.183 -14540002.475 10 0 60433 10800.00000 0 -22561679.600 417986.002 -11904092.224 10 0 60433 11700.00000 0 -23865097.987 313693.417 -9037062.691 10 0 60433 12600.00000 0 -24811968.327 352549.247 -5994727.215 10 0 60433 13500.00000 0 -25372810.835 485167.138 -2836198.058 10 0 60433 14400.00000 0 -25530768.584 657701.683 377264.130 10 0 60433 15300.00000 0 -25282255.702 814365.865 3583434.644 10 0 60433 16200.00000 0 -24637070.879 900024.141 6720320.148 10 0 60433 17100.00000 0 -23617973.929 862752.179 9727342.750 10 0 60433 18000.00000 0 -22259745.111 656256.378 12546491.008 10 0 60433 18900.00000 0 -20607767.819 242052.771 15123417.314 10 0 60433 19800.00000 0 -18716194.255 -408684.680 17408462.464 10 0 60433 20700.00000 0 -16645770.173 -1313682.523 19357589.829 10 0 60433 21600.00000 0 -14461408.012 -2478592.370 20933213.378 10 0 60433 22500.00000 0 -12229607.408 -3896522.014 22104905.717 10 0 60433 23400.00000 0 -10015827.863 -5548093.146 22849974.256 10 0 60433 24300.00000 0 -7881919.992 -7402024.627 23153895.687 10 0 60433 25200.00000 0 -5883719.370 -9416219.234 23010601.054 10 0 60433 26100.00000 0 -4068900.575 -11539311.535 22422605.819 10 0 60433 27000.00000 0 -2475178.894 -13712615.890 21400981.565 10 0 60433 27900.00000 0 -1128933.401 -15872397.067 19965168.337 10 0 60433 28800.00000 0 -44308.631 -17952372.308 18142629.049 10 0 60433 29700.00000 0 777167.103 -19886343.491 15968350.096 10 0 60433 30600.00000 0 1346429.544 -21610851.680 13484194.968 10 0 60433 31500.00000 0 1686197.118 -23067744.249 10738120.679 10 0 60433 32400.00000 0 1829787.110 -24206547.179 7783269.695 10 0 60433 33300.00000 0 1819477.477 -24986542.064 4676953.022 10 0 60433 34200.00000 0 1704482.122 -25378458.605 1479542.974 10 0 60433 35100.00000 0 1538624.565 -25365708.820 -1746703.340 10 0 60433 36000.00000 0 1377808.756 -24945107.994 -4938866.540 10 0 60433 36900.00000 0 1277395.348 -24127049.010 -8034608.494 10 0 60433 37800.00000 0 1289596.743 -22935120.073 -10973410.809 10 0 60433 38700.00000 0 1461004.101 -21405179.978 -13697781.821 10 0 60433 39600.00000 0 1830354.397 -19583928.788 -16154405.995 10 0 60433 40500.00000 0 2426635.444 -17527033.940 -18295210.721 10 0 60433 41400.00000 0 3267612.321 -15296891.374 -20078327.387 10 0 60433 42300.00000 0 4358840.194 -12960117.278 -21468925.988 10 0 60433 43200.00000 0 5693207.242 -10584877.699 -22439905.586 10 0 60433 44100.00000 0 7251028.173 -8238170.111 -22972426.409 10 0 60433 45000.00000 0 9000684.713 -5983172.763 -23056273.017 10 0 60433 45900.00000 0 10899785.668 -3876774.159 -22690041.969 10 0 60433 46800.00000 0 12896796.725 -1967386.659 -21881151.307 10 0 60433 47700.00000 0 14933070.046 -293135.375 -20645673.127 10 0 60433 48600.00000 0 16945186.834 1119503.185 -19007994.238 10 0 60433 49500.00000 0 18867513.055 2256558.044 -17000313.446 10 0 60433 50400.00000 0 20634859.927 3116883.383 -14661987.294 10 0 60433 51300.00000 0 22185136.961 3711931.149 -12038738.917 10 0 60433 52200.00000 0 23461886.321 4064990.088 -9181747.227 10 0 60433 53100.00000 0 24416592.928 4209927.058 -6146635.705 10 0 60433 54000.00000 0 25010674.867 4189487.067 -2992381.674 10 0 60433 54900.00000 0 25217072.604 4053226.527 219831.998 10 0 60433 55800.00000 0 25021372.751 3855168.854 3427800.098 10 0 60433 56700.00000 0 24422421.790 3651282.377 6569490.444 10 0 60433 57600.00000 0 23432406.467 3496887.085 9584228.993 10 0 60433 58500.00000 0 22076399.491 3444098.869 12413852.944 10 0 60433 59400.00000 0 20391390.990 3539417.638 15003811.173 10 0 60433 60300.00000 0 18424846.780 3821559.147 17304192.794 10 0 60433 61200.00000 0 16232853.416 4319619.946 19270666.132 10 0 60433 62100.00000 0 13877926.158 5051650.990 20865312.296 10 0 60433 63000.00000 0 11426569.206 6023698.739 22057339.390 10 0 60433 63900.00000 0 8946687.109 7229353.661 22823665.393 10 0 60433 64800.00000 0 6504952.002 8649825.703 23149359.768 10 0 60433 65700.00000 0 4164232.986 10254545.146 23027935.995 10 0 60433 66600.00000 0 1981191.610 12002266.203 22461489.314 10 0 60433 67500.00000 0 4141.023 13842630.400 21460676.205 10 0 60433 68400.00000 0 -1728743.865 15718127.968 20044534.508 10 0 60433 69300.00000 0 -3190791.524 17566378.903 18240145.475 10 0 60433 70200.00000 0 -4367717.288 19322641.621 16082141.754 10 0 60433 71100.00000 0 -5257987.511 20922446.907 13612067.980 10 0 60433 72000.00000 0 -5872647.710 22304248.557 10877603.616 10 0 60433 72900.00000 0 -6234620.167 23411980.202 7931660.610 10 0 60433 73800.00000 0 -6377498.739 24197410.444 4831371.362 10 0 60433 74700.00000 0 -6343890.110 24622195.711 1636985.408 10 0 60433 75600.00000 0 -6183370.547 24659541.974 -1589304.240 10 0 60433 76500.00000 0 -5950144.358 24295402.327 -4784581.949 10 0 60433 77400.00000 0 -5700503.839 23529156.685 -7886452.541 10 0 60433 78300.00000 0 -5490199.925 22373741.897 -10834280.595 10 0 60433 79200.00000 0 -5371837.304 20855224.168 -13570399.569 10 0 60433 80100.00000 0 -5392407.331 19011829.992 -16041264.539 10 0 60433 81000.00000 0 -5591066.457 16892475.489 -18198523.578 10 0 60433 81900.00000 0 -5997257.395 14554856.011 -19999984.470 10 0 60433 82800.00000 0 -6629255.320 12063177.183 -21410455.942 10 0 60433 83700.00000 0 -7493202.780 9485624.116 -22402445.548 10 0 60433 84600.00000 0 -8582675.498 6891676.737 -22956699.802 10 0 60433 85500.00000 0 -9878797.978 4349385.557 -23062575.822 99